Siga o Apolo11 no Facebook   Siga o Apolo11 no Twiiter
Ciência, Espaço e Tecnologia




Elementos Keplerianos formato Two Line

Para que um programa de rastreio possa saber a localização exata de qualquer satélite no espaço e assim poder rastreá-lo corretamente, é necessário que ele seja carregado com algumas informações.

Estas informações são chamadas de Elementos Orbitais ou Elementos Keplerianos e consistem em 2 linhas com dezenas de números. Esses números nada mais são que os parâmetros orbitais do satélite, tais como altitude, atitude, excentricidade da órbita, número de órbitas por dia, etc.

Com base nestas informações o programa é capaz de determinar com bastante exatidão a posição de qualquer satélite no espaço e nos informar em qual horário este estará dentro do alcance de nossa estação. Para que isso seja feito com precisão é necessário que os dados estejam sempre bem atualizadas.

Devido aos parâmetros orbitais serem descritos em 2 linhas, estes formato é também conhecido internacionalmente por 2line (leia-se Two Line”).

Para atualizar seu programa de rastreio basta copiar os dados disponibilizados e fornece-los ao programa. Nossos elementos orbitais são atualizados diariamente.

NOAATodos os satélites ambientais da série NOAA
30 DiasSatélites lançados nos últimos 30 dias
ISSSatélites e foguetes relacionados à Estação Espacial Internacional
HAMSatélites construídos por radiomadores
CUBESatélites tipo cubo, com 10 centímetros de lado
METEOSatélites voltados à previsão do tempo
EDUSatélites construídos e operados por universidades
VIS100 satélites mais brilhantes que podem ser vistos a olho nú



Satélites Visíveis
ATLAS CENTAUR 2         
1 00694U 63047A   21272.46490168  .00000519  00000-0  52930-4 0  9999
2 00694  30.3586 187.8682 0584817 299.8689  54.5034 14.02883729903007
THOR AGENA D R/B        
1 00733U 64002A   21272.52183662  .00000049  00000-0  35689-4 0  9990
2 00733  98.9771 187.3175 0033009 305.6903  54.1209 14.32456717  5959
SL-3 R/B                
1 00877U 64053B   21272.43117990  .00000008  00000-0  26683-4 0  9995
2 00877  65.0792  38.3788 0077655 226.0734 133.3940 14.59442868 29920
SL-8 R/B                
1 02802U 67045B   21272.32983801  .00000024  00000-0  14901-4 0  9997
2 02802  74.0112 132.6897 0066395 171.6584 188.5694 14.43823034854792
SL-8 R/B                
1 03230U 68040B   21272.46907956  .00000467  00000-0  50990-4 0  9990
2 03230  74.0378 348.8446 0031319 245.1956 114.5967 14.90873024847487
OAO 2                   
1 03597U 68110A   21272.43582729  .00000068  00000-0  24241-4 0  9995
2 03597  34.9944 310.5364 0005474 170.4310 189.6485 14.45893628784119
ISIS 1                  
1 03669U 69009A   21272.66882704  .00000016  00000-0 -59269-5 0  9997
2 03669  88.4333 334.7180 1712723 120.8529 257.2271 11.29513406165696
SERT 2                  
1 04327U 70009A   21272.31827438 -.00000025  00000-0  21599-4 0  9990
2 04327  99.1413 294.4163 0004941  12.7870 357.9655 13.58502643559597
SL-3 R/B                
1 04814U 70113B   21272.72626600  .00003327  00000-0  90199-4 0  9999
2 04814  81.1408 312.5412 0024497  93.8640 266.5401 15.36996647774621
SL-3 R/B                
1 05118U 71028B   21272.51605818  .00001119  00000-0  56573-4 0  9993
2 05118  81.2562 157.4373 0047571  73.1403 287.5034 15.15176242740827
ASTEX 1                 
1 05560U 71089A   21272.50051547  .00000126  00000-0  34089-4 0  9999
2 05560  92.7213 348.0878 0017545 144.9618 215.2745 14.48155015627369
SL-8 R/B                
1 05730U 71119B   21272.35854644  .00002315  00000-0  14791-3 0  9993
2 05730  73.8914 243.1569 0684011 176.3234 184.3331 14.05689201425308
COSMOS 482 DESCENT CRAFT
1 06073U 72023E   21272.48399830  .00032141  63853-5  12283-3 0  9998
2 06073  52.0289 221.7332 1249322 157.3310 208.8115 13.32085120564147
OAO 3 (COPERNICUS)      
1 06153U 72065A   21272.40631045  .00000073  00000-0  20136-4 0  9998
2 06153  35.0061 162.6671 0007483 235.7734 291.1972 14.57997791609166
ATLAS CENTAUR R/B       
1 06155U 72065B   21272.35596383  .00000292  00000-0  49458-4 0  9990
2 06155  35.0049  39.6710 0036898 112.9649 247.4948 14.71717877601737
SL-8 R/B                
1 08459U 75112B   21272.32324846 -.00000016  00000-0  34678-5 0  9999
2 08459  74.0599 119.4321 0016966 257.4355 102.4901 14.36854598398765
SL-3 R/B                
1 10114U 77057B   21272.50002902  .00001037  00000-0  54291-4 0  9991
2 10114  97.3737  53.2028 0012032 249.7697 110.2244 15.17936207420918
SEASAT 1                
1 10967U 78064A   21272.44095151 -.00000028  00000-0  31971-4 0  9997
2 10967 107.9961 330.9022 0002619 281.9697  78.1154 14.43898567272201
METEOR 1-29             
1 11251U 79005A   21272.58098073  .00003666  00000-0  92598-4 0  9993
2 11251  97.6905 223.3531 0013165 241.4369 118.5552 15.40449065880249
SL-14 R/B               
1 11267U 79011B   21272.74161779  .00000180  00000-0  16350-4 0  9999
2 11267  82.5281 191.2095 0018313  64.8969 295.4146 14.89042216308436
SL-8 R/B                
1 11574U 79089B   21272.81254157  .00000043  00000-0  21493-4 0  9998
2 11574  74.0706 208.7897 0014665  73.5257 286.7509 14.40817020202611
SL-14 R/B               
1 11672U 80005B   21272.76834714  .00000207  00000-0  19795-4 0  9998
2 11672  82.5171  41.4613 0017334 154.4418 205.7660 14.88068520256200
SL-8 R/B                
1 12139U 81003B   21272.45916607  .00003168  00000-0  14643-3 0  9999
2 12139  82.9453 280.0871 0455471 164.2178 197.3787 14.58970439 74801
SL-3 R/B                
1 12465U 81046B   21272.58488429  .00001576  00000-0  81527-4 0  9995
2 12465  81.2454  24.5403 0034681 125.2894 235.1587 15.15102476204385
METEOR PRIRODA          
1 12585U 81065A   21272.46001942  .00001688  00000-0  75869-4 0  9993
2 12585  97.5791 269.7699 0013245 336.6844  23.3789 15.22500742194440
SL-3 R/B                
1 12904U 81103B   21272.86645720  .00000820  00000-0  54134-4 0  9992
2 12904  81.1744 286.3179 0027303 311.4877  48.4002 15.06104434728424
SL-3 R/B                
1 13068U 82013B   21272.48051075  .00000225  00000-0  13113-4 0  9998
2 13068  81.2017 234.4126 0021937 180.8085 179.3108 15.07719366159035
SL-3 R/B                
1 13154U 82039B   21272.51017912  .00000558  00000-0  43643-4 0  9998
2 13154  81.1807 262.3318 0038948 232.1360 127.6335 14.98973500137919
SL-3 R/B                
1 13403U 82079B   21272.86566405  .00000474  00000-0  29261-4 0  9990
2 13403  81.1646 274.7662 0034043 150.8586 209.4547 15.07496130132531
COSMOS 1408             
1 13552U 82092A   21272.44929125  .00002775  00000-0  96683-4 0  9994
2 13552  82.5687 170.2456 0015485 276.2961  83.6515 15.29113368135685
SL-14 R/B               
1 13553U 82092B   21272.33877706  .00000163  00000-0  16591-4 0  9999
2 13553  82.5706 215.6569 0019785 272.4874 244.8322 14.84292371 88119
SL-3 R/B                
1 13819U 83010B   21272.34739353  .00001309  00000-0  65466-4 0  9999
2 13819  81.1141 130.8887 0032003 153.4336 206.8542 15.16289375110442
COSMOS 1455             
1 14032U 83037A   21272.44100716  .00001330  00000-0  61791-4 0  9993
2 14032  82.5172 339.3603 0015444 230.9008 129.0854 15.19042254 98597
SL-3 R/B                
1 14208U 83075B   21272.46799128  .00000910  00000-0  56431-4 0  9991
2 14208  97.4491 248.4678 0039603 128.9516 231.5254 15.11571378 83577
COSMOS 1500             
1 14372U 83099A   21272.34435468  .00002128  00000-0  98288-4 0  9999
2 14372  82.5146 234.5383 0015988  42.8939 317.3539 15.19545690 74949
COSMOS 1536             
1 14699U 84013A   21272.46505048  .00000304  00000-0  18846-4 0  9999
2 14699  82.5228 253.1572 0014540 111.0217 249.2567 15.05894977 27447
COSMOS 1544             
1 14819U 84027A   21272.44617832  .00003264  00000-0  11351-3 0  9992
2 14819  82.4805 250.4822 0011061 281.6081  78.3917 15.29302745 54484
SL-14 R/B               
1 14820U 84027B   21272.42799662  .00000125  00000-0  12267-4 0  9995
2 14820  82.5430 323.0786 0017301 297.8883  62.0580 14.83718243  6935
ERBS                    
1 15354U 84108B   21272.50444868  .00009291  00000-0  14721-3 0  9991
2 15354  57.0041 191.9390 0005002 190.2495 169.8464 15.54204882 40377
SL-8 R/B                
1 15483U 85006B   21272.53210362  .00000050  00000-0  25856-4 0  9991
2 15483  74.0484   2.0205 0019673 315.0246  56.3071 14.36386456921017
COSMOS 1626             
1 15494U 85009A   21272.08454323  .00001303  00000-0  50762-4 0  9999
2 15494  82.4765 120.8675 0001990  11.7611 348.3673 15.25095092  6763
SL-12 R/B(2)            
1 15772U 85042D   21272.43958075  .00000050  00000-0  44345-4 0  9995
2 15772  71.1063 272.8159 0033603 131.8830  19.7711 14.21301154883844
SL-14 R/B               
1 15945U 85069B   21272.79832370  .00000130  00000-0  12615-4 0  9998
2 15945  82.5246 106.6547 0020383 150.8722 209.3635 14.84095523953223
SL-3 R/B                
1 16111U 85090B   21272.33749774  .00034323  00000-0  20818-3 0  9997
2 16111  97.4648 123.3235 0006268 320.4010  39.6798 15.77454414988572
SL-16 R/B               
1 16182U 85097B   21272.51409038 -.00000025  00000-0  11381-4 0  9997
2 16182  71.0034 314.5745 0008939 223.0693 239.2636 14.16262605857529
SL-14 R/B               
1 16496U 86006B   21272.45755501  .00000114  00000-0  10727-4 0  9999
2 16496  82.5275 342.5629 0017930 305.5344  64.5924 14.84199920908411
COSMOS 1743             
1 16719U 86034A   21272.46335321  .00001529  00000-0  77468-4 0  9999
2 16719  82.5494 257.4192 0010126 255.7611 223.8501 15.16202167932483
SL-14 R/B               
1 16792U 86046B   21272.44258614  .00000121  00000-0  11758-4 0  9997
2 16792  82.4852 169.3871 0024215 175.2467 184.8983 14.83301604885762
SL-14 R/B               
1 16882U 86055B   21272.33005213  .00000170  00000-0  17799-4 0  9995
2 16882  82.5237 208.1613 0018360 290.1336 185.8235 14.83287594878744
AJISAI (EGS)            
1 16908U 86061A   21272.58479955 -.00000115  00000-0 -12239-3 0  9990
2 16908  50.0113  41.1729 0011515 118.2130 330.3288 12.44494393266014
